#timestamp,LO_Frequency,Hit,StdDev 
1627783215.7,286047000.7,N
1627783235.6,286047000.9,N
1627783255.4,286047000.7,N
1627783275.2,286047001.0,N
1627783295.1,286047001.0,N
1627783296.0,286047001.0,N
1627783315.8,286046998.5,N
1627783335.7,286047000.9,N
1627783355.5,286047001.1,N
1627783375.3,286047001.0,N
1627783395.2,286047000.9,N
1627783415.0,286047000.7,N
1627783415.9,286047000.7,N
1627783435.8,286047001.1,N
1627783455.6,286047001.2,N
1627783475.4,286047001.0,N
1627783495.3,286047000.7,N
1627783515.1,286046998.1,N
1627783535.8,286047000.9,N
1627783555.7,286047001.2,N
1627783575.5,286047000.0,N
1627783595.4,286047000.0,N
1627783615.2,286047000.9,N
1627783635.0,286047000.6,N
1627783635.9,286047000.6,N
1627783655.8,286047000.9,N
1627783675.6,286047001.0,N
1627783725.5,286047000.7,E
1627783735.4,286047001.2,N
1627783755.2,286046998.9,P
1627783775.1,286046998.6,N
1627783776.0,286046998.6,N
1627783795.8,286046998.4,N
1627783815.7,286046998.8,N
1627783835.5,286046998.7,N
1627783855.3,286046998.5,N
1627783875.2,286046999.5,N
1627783895.0,286046998.2,N
1627783895.9,286046998.2,N
1627783915.8,286046998.3,N
1627783935.6,286046998.3,N
1627783955.4,286046999.4,N
1627783975.3,286046998.9,N
1627783995.1,286046998.6,N
1627784015.9,286046998.3,N
1627784035.7,286046998.7,N
1627784055.5,286046998.3,N
1627784075.4,286046998.7,N
1627784095.2,286046998.6,N
1627784115.0,286047001.2,N
1627784116.0,286047001.2,N
1627784135.8,286046999.4,N
1627784155.6,286046998.2,N
1627784175.5,286046998.2,N
1627784195.3,286046998.1,N
1627784215.1,286046998.5,N
1627784235.9,286046998.7,N
1627784255.7,286046999.0,N
1627784275.6,286046999.1,N
1627784295.4,286046999.5,N
1627784315.2,286046998.7,N
1627784335.1,286046998.5,N
1627784336.0,286046998.5,N
1627784355.8,286046998.8,N
1627784375.7,286046998.4,N
1627784395.5,286046998.7,N
1627784415.3,286046998.5,N
1627784435.2,286046998.7,N
1627784455.0,286046998.6,N
1627784455.9,286046998.6,N
1627784475.7,286046998.4,N
1627784495.6,286046998.7,N
1627784515.4,286046998.7,N
1627784535.3,286046998.9,N
1627784555.1,286046998.9,N
1627784575.8,286046998.9,N
1627784595.7,286046998.8,N
1627784615.5,286046998.6,N
1627784635.4,286046998.6,N
1627784655.2,286046999.3,N
1627784675.0,286046998.9,N
1627784675.9,286046998.9,Y
1627784695.8,286047000.6,P
1627784715.6,286047000.1,N
1627784735.5,286047000.3,N
1627784755.3,286047000.0,N
1627784775.1,286047000.5,N
1627784795.9,286047000.5,N
1627784815.7,286047000.4,N
1627784835.5,286047000.0,N
1627784855.4,286047000.4,N
1627784875.2,286047000.6,N
1627784895.1,286047000.2,N
1627784896.0,286047000.2,N
1627784915.8,286046999.9,N
1627784935.6,286047002.4,Y
1627784955.5,286047000.3,P
1627784975.3,286047000.0,N
1627784995.2,286047000.4,P
1627785015.9,286047000.3,N
1627785035.7,286047000.0,N
1627785055.6,286047000.6,Y
1627785075.4,286047001.0,P
1627785095.2,286047000.6,N
1627785115.1,286047000.6,N
1627785116.0,286047000.6,N
1627785135.8,286047000.3,N
1627785155.7,286047000.7,N
1627785175.5,286047000.6,N
1627785195.3,286047000.5,N
1627785215.2,286047000.5,N
1627785235.0,286047000.3,N
1627785235.9,286047000.3,N
1627785255.8,286047000.7,Y
1627785275.6,286046998.1,P
1627785295.4,286046998.2,N
1627785315.3,286047001.1,N
1627785335.1,286047000.4,N
1627785355.8,286046998.3,N
1627785375.7,286046998.4,N
1627785395.5,286046998.5,N
1627785415.4,286046998.7,N
1627785435.2,286046998.1,N
1627785455.0,286046998.6,N
1627785455.9,286046998.6,N
1627785475.8,286046998.6,N
1627785495.6,286046998.5,N
1627785515.5,286046998.3,N
1627785535.3,286047000.4,N
1627785555.1,286046998.2,N
1627785575.9,286046998.6,N
1627785595.7,286046998.5,N
1627785615.5,286046998.3,N
1627785635.4,286046998.3,N
1627785655.2,286046998.2,N
1627785675.1,286046998.5,N
1627785676.0,286046998.5,N
1627785695.8,286046998.3,N
1627785715.6,286046998.7,N
1627785735.5,286046998.1,N
1627785755.3,286046998.5,N
1627785775.2,286046998.1,N
1627785795.9,286046998.1,N
1627785815.7,286046998.3,N
1627785835.6,286046998.2,N
1627785855.4,286046998.3,N
1627785875.2,286046998.5,N
1627785895.1,286046999.0,N
1627785896.0,286046999.0,N
1627785915.8,286046998.9,N
1627785935.7,286046998.5,Y
1627785955.5,286047002.7,P
1627785975.3,286046999.8,N
1627785995.2,286047002.4,N
1627786015.0,286046999.9,N
1627786015.9,286046999.9,N
1627786035.8,286046999.7,N
1627786055.6,286046999.7,N
1627786075.4,286047002.7,N
1627786095.3,286047000.1,N
1627786115.1,286047000.6,N
1627786135.8,286047002.8,N
1627786155.7,286047002.8,N
1627786175.5,286047000.1,N
1627786195.4,286047002.8,N
1627786215.2,286046999.7,N
1627786235.0,286046999.7,N
1627786235.9,286046999.7,N
1627786255.8,286047002.6,N
1627786275.6,286047002.1,N
1627786295.5,286047002.7,N
1627786315.3,286047002.6,N
1627786335.1,286046999.8,N
1627786355.9,286046999.8,N
1627786375.7,286047002.5,N
1627786395.5,286046999.7,N
1627786415.4,286046999.9,N
1627786435.2,286047002.6,N
1627786455.1,286046999.7,N
1627786456.0,286046999.7,N
1627786475.8,286046999.7,N
1627786495.6,286046999.8,N
1627786515.5,286047002.2,N
1627786535.3,286046999.8,N
1627786555.2,286047002.4,N
1627786575.9,286046999.8,N
1627786595.7,286047002.4,N
1627786615.6,286047002.4,N
1627786635.4,286047002.3,N
1627786655.2,286047002.3,N
1627786675.1,286047002.3,N
1627786676.0,286047002.3,N
1627786695.8,286047002.3,N
1627786715.7,286047002.4,N
1627786735.5,286047002.4,N
1627786755.3,286047002.7,N
1627786775.2,286047002.4,N
1627786795.0,286047002.2,N
1627786795.9,286047002.2,N
